Погода в Ла-Мальбе

Канада     47°39′30″N   70°09′16″W
темп.,
°C
ветер,
м/с
пор.,
м/с
влажн.,
%
обл.,
%
осадки,
мм/ч
давл.,
гПа
погр.,
м
15 мая, сб
сб1523:00+6сз11520 0.0 102010
02:00+5сз11535 0.0 102010
05:00+4сз115420 0.0 102110
08:00+9ююв22487 0.0 1022297
11:00+15ююв223941 0.0 1020709
14:00+16ююв244928 0.6 1018982
17:00+13ссз4876100 0.9 10191017
20:00+8юв2398100 2.9 1021150
16 мая, вс
вс1623:00+5всв1291100 0.1 1023139
02:00+5всв019191 0.1 102371
05:00+3ссв1195100 0.0 102520
08:00+7в118148 0.0 1026468
11:00+12юв226013 0.0 1025926
14:00+14юв435218 0.0 10241157
17:00+13юв225898 0.0 1024523
20:00+8в11805 0.0 102511
17 мая, пн
пн1723:00+5зюз11892 0.0 102611
02:00+5з1189100 0.1 102512
05:00+5з119362 0.5 102510
08:00+11ю117552 0.9 1025290
11:00+16ююв335722 0.4 10231146
14:00+15ю235968 0.6 1022520
17:00+18юз365787 0.7 10201378
20:00+11ю119182 3.6 102019
18 мая, вт
вт1823:00+9зюз1195100 0.6 102015
02:00+9з2794100 1.7 1018269
05:00+10зсз4108888 0.1 1017744
08:00+10зсз4106510 0.1 1019991
11:00+12сз5934100 0.0 10201290
14:00+12сз6935100 0.0 10201389
17:00+12сз5936100 0.0 10201496
20:00+9сз41041100 0.0 1021800
19 мая, ср
ср1923:00+6сз355069 0.0 1023105
02:00+4сз225786 0.0 102438
05:00+6сз2253100 0.0 102466
08:00+7ссз115682 0.0 102569
11:00+15ююв124497 0.0 1024831
14:00+16юв324886 0.0 1022445
17:00+15юв225288 0.0 1021311
20:00+11ююв11727 0.0 102212